MAS725 WMKK-WIII

Flight info

Callsign MAS725
Flight time 1h 42m
Altitude 39000
Route MITOS1D MITOS M630 BOBAG P501 ANITO B470 BUNIK
Aircraft B38M/M-SDE1FGHILORVWXY/HB1

Departure

Time 2026-05-05 15:20
Airport Kuala Lumpur International Airport (WMKK)

Arrival

Time 2026-05-05 17:03
Airport Soekarno-Hatta International Airport (WIII)
Time Latitude Longitude Altitude Speed Heading
2026-05-05 14:40 2.75299 101.70724 75 ft 0 kts 326°
2026-05-05 15:07 2.75288 101.70731 75 ft 3 kts 330°
2026-05-05 15:07 2.75270 101.70740 64 ft 3 kts 340°
2026-05-05 15:07 2.75251 101.70745 72 ft 3 kts 357°
2026-05-05 15:08 2.75233 101.70742 66 ft 3 kts 32°
2026-05-05 15:08 2.75225 101.70736 73 ft 0 kts 56°
2026-05-05 15:08 2.75225 101.70735 73 ft 2 kts 56°
2026-05-05 15:12 2.75226 101.70736 73 ft 1 kts 56°
2026-05-05 15:12 2.75237 101.70753 68 ft 6 kts 56°
2026-05-05 15:12 2.75269 101.70801 72 ft 10 kts 56°
2026-05-05 15:13 2.75311 101.70863 66 ft 12 kts 56°
2026-05-05 15:13 2.75361 101.70938 70 ft 14 kts 56°
2026-05-05 15:13 2.75419 101.71025 68 ft 16 kts 56°
2026-05-05 15:13 2.75484 101.71124 68 ft 18 kts 56°
2026-05-05 15:14 2.75557 101.71235 69 ft 20 kts 56°
2026-05-05 15:14 2.75637 101.71353 69 ft 18 kts 54°
2026-05-05 15:14 2.75637 101.71439 71 ft 12 kts 134°
2026-05-05 15:14 2.75570 101.71489 68 ft 11 kts 130°
2026-05-05 15:15 2.75570 101.71560 74 ft 9 kts 58°
2026-05-05 15:15 2.75591 101.71590 70 ft 0 kts 55°
2026-05-05 15:18 2.75593 101.71593 72 ft 2 kts 55°
2026-05-05 15:18 2.75605 101.71609 67 ft 4 kts 55°
2026-05-05 15:18 2.75628 101.71643 68 ft 7 kts 55°
2026-05-05 15:19 2.75651 101.71658 72 ft 2 kts 358°
2026-05-05 15:19 2.75658 101.71655 69 ft 2 kts 330°
2026-05-05 15:19 2.75700 101.71627 71 ft 16 kts 326°
2026-05-05 15:19 2.75966 101.71449 75 ft 79 kts 326°
2026-05-05 15:20 2.76593 101.71029 66 ft 135 kts 326°
2026-05-05 15:20 2.77494 101.70425 162 ft 167 kts 326°
2026-05-05 15:20 2.78458 101.69787 721 ft 168 kts 328°
2026-05-05 15:20 2.79459 101.69151 1247 ft 173 kts 329°
2026-05-05 15:21 2.80593 101.68617 1716 ft 191 kts 340°
2026-05-05 15:21 2.81915 101.68152 2080 ft 216 kts 341°
2026-05-05 15:21 2.83435 101.67621 2516 ft 239 kts 340°
2026-05-05 15:21 2.85064 101.67053 3046 ft 258 kts 341°
2026-05-05 15:22 2.86808 101.66446 3650 ft 271 kts 341°
2026-05-05 15:22 2.88612 101.65917 4500 ft 272 kts 354°
2026-05-05 15:22 2.90491 101.66088 5343 ft 273 kts 20°
2026-05-05 15:22 2.92070 101.67117 6152 ft 275 kts 49°
2026-05-05 15:23 2.92976 101.68771 6874 ft 279 kts 76°
2026-05-05 15:23 2.93023 101.70708 7623 ft 283 kts 103°
2026-05-05 15:23 2.92119 101.72479 8350 ft 287 kts 132°
2026-05-05 15:23 2.90497 101.73593 9063 ft 291 kts 160°
2026-05-05 15:24 2.88578 101.74265 9804 ft 295 kts 158°
2026-05-05 15:24 2.86623 101.75043 10436 ft 304 kts 158°
2026-05-05 15:24 2.84610 101.75868 10747 ft 323 kts 157°
2026-05-05 15:24 2.82482 101.76753 11147 ft 338 kts 157°
2026-05-05 15:25 2.80286 101.77658 11817 ft 341 kts 157°
2026-05-05 15:25 2.78078 101.78547 12578 ft 344 kts 158°
2026-05-05 15:25 2.75841 101.79442 13327 ft 348 kts 158°
2026-05-05 15:25 2.73614 101.80326 14036 ft 351 kts 157°
2026-05-05 15:26 2.71329 101.81231 14720 ft 355 kts 157°
2026-05-05 15:26 2.68994 101.82152 15410 ft 358 kts 157°
2026-05-05 15:26 2.66697 101.83060 16066 ft 361 kts 157°
2026-05-05 15:26 2.64339 101.83990 16721 ft 365 kts 157°
2026-05-05 15:27 2.61939 101.84937 17358 ft 368 kts 156°
2026-05-05 15:27 2.59576 101.85869 17970 ft 372 kts 156°
2026-05-05 15:27 2.57159 101.86823 18511 ft 375 kts 156°
2026-05-05 15:27 2.54717 101.87785 19023 ft 378 kts 156°
2026-05-05 15:28 2.52265 101.88750 19536 ft 381 kts 156°
2026-05-05 15:28 2.49787 101.89727 20038 ft 384 kts 156°
2026-05-05 15:28 2.47297 101.90708 20536 ft 387 kts 157°
2026-05-05 15:28 2.44783 101.91698 21023 ft 390 kts 156°
2026-05-05 15:29 2.42252 101.92695 21500 ft 392 kts 156°
2026-05-05 15:29 2.39710 101.93696 21979 ft 395 kts 156°
2026-05-05 15:29 2.37132 101.94710 22443 ft 398 kts 156°
2026-05-05 15:29 2.34550 101.95727 22905 ft 401 kts 156°
2026-05-05 15:30 2.31950 101.96749 23356 ft 404 kts 156°
2026-05-05 15:30 2.29321 101.97784 23735 ft 407 kts 156°
2026-05-05 15:30 2.26680 101.98823 24118 ft 409 kts 157°
2026-05-05 15:30 2.24021 101.99868 24489 ft 411 kts 157°
2026-05-05 15:31 2.21357 102.00915 24861 ft 413 kts 157°
2026-05-05 15:31 2.18670 102.01970 25235 ft 416 kts 157°
2026-05-05 15:31 2.15970 102.03031 25593 ft 418 kts 157°
2026-05-05 15:31 2.13259 102.04096 25959 ft 420 kts 157°
2026-05-05 15:32 2.10526 102.05169 26314 ft 423 kts 157°
2026-05-05 15:32 2.07785 102.06245 26677 ft 425 kts 157°
2026-05-05 15:32 2.05025 102.07328 27032 ft 427 kts 157°
2026-05-05 15:32 2.02255 102.08415 27383 ft 429 kts 157°
2026-05-05 15:33 1.99519 102.09613 27709 ft 430 kts 148°
2026-05-05 15:33 1.97168 102.11447 28053 ft 429 kts 132°
2026-05-05 15:33 1.95327 102.13796 28358 ft 431 kts 125°
2026-05-05 15:33 1.93592 102.16252 28641 ft 434 kts 124°
2026-05-05 15:34 1.91877 102.18743 28979 ft 436 kts 123°
2026-05-05 15:34 1.90167 102.21262 29300 ft 439 kts 123°
2026-05-05 15:34 1.88464 102.23795 29614 ft 441 kts 123°
2026-05-05 15:34 1.86752 102.26351 29926 ft 443 kts 123°
2026-05-05 15:35 1.85036 102.28914 30189 ft 445 kts 123°
2026-05-05 15:35 1.83312 102.31491 30447 ft 447 kts 123°
2026-05-05 15:35 1.81580 102.34080 30705 ft 449 kts 123°
2026-05-05 15:35 1.79843 102.36676 30960 ft 451 kts 123°
2026-05-05 15:36 1.78095 102.39289 31194 ft 453 kts 123°
2026-05-05 15:36 1.76360 102.41882 31441 ft 455 kts 123°
2026-05-05 15:36 1.74600 102.44511 31694 ft 457 kts 123°
2026-05-05 15:36 1.73408 102.46293 31864 ft 458 kts 123°
2026-05-05 15:37 1.71052 102.49814 32177 ft 461 kts 123°
2026-05-05 15:37 1.69266 102.52482 32417 ft 462 kts 123°
2026-05-05 15:37 1.68059 102.54285 32575 ft 463 kts 123°
2026-05-05 15:37 1.66261 102.56971 32820 ft 465 kts 123°
2026-05-05 15:38 1.63885 102.60523 33215 ft 465 kts 123°
2026-05-05 15:38 1.62086 102.63211 33529 ft 465 kts 123°
2026-05-05 15:38 1.60872 102.65024 33741 ft 464 kts 123°
2026-05-05 15:38 1.59100 102.67671 34041 ft 464 kts 123°
2026-05-05 15:39 1.57311 102.70344 34326 ft 463 kts 123°
2026-05-05 15:39 1.55522 102.73017 34625 ft 462 kts 123°
2026-05-05 15:39 1.53738 102.75681 34887 ft 461 kts 123°
2026-05-05 15:39 1.51953 102.78347 35148 ft 461 kts 123°
2026-05-05 15:40 1.50174 102.81004 35415 ft 461 kts 123°
2026-05-05 15:40 1.48395 102.83662 35676 ft 460 kts 123°
2026-05-05 15:40 1.46615 102.86321 35937 ft 460 kts 123°
2026-05-05 15:40 1.44834 102.88980 36192 ft 459 kts 123°
2026-05-05 15:41 1.43057 102.91634 36444 ft 459 kts 123°
2026-05-05 15:41 1.41285 102.94281 36698 ft 459 kts 123°
2026-05-05 15:41 1.39508 102.96935 36875 ft 460 kts 123°
2026-05-05 15:42 1.35968 103.02234 36872 ft 456 kts 123°
2026-05-05 15:42 1.32444 103.07510 36867 ft 457 kts 123°
2026-05-05 15:43 1.28911 103.12800 36864 ft 457 kts 123°
2026-05-05 15:43 1.25379 103.18086 36863 ft 458 kts 123°
2026-05-05 15:44 1.21844 103.23378 36858 ft 458 kts 123°
2026-05-05 15:44 1.18309 103.28669 36860 ft 458 kts 123°
2026-05-05 15:45 1.14775 103.33958 36855 ft 458 kts 123°
2026-05-05 15:45 1.11236 103.39253 36857 ft 458 kts 123°
2026-05-05 15:46 1.07706 103.44536 36859 ft 458 kts 123°
2026-05-05 15:46 1.04130 103.49807 36852 ft 458 kts 129°
2026-05-05 15:47 0.99726 103.54407 36847 ft 459 kts 133°
2026-05-05 15:47 0.95298 103.58996 36872 ft 459 kts 133°
2026-05-05 15:48 0.90866 103.63576 36874 ft 458 kts 133°
2026-05-05 15:48 0.86435 103.68154 36877 ft 458 kts 133°
2026-05-05 15:49 0.82006 103.72730 36895 ft 459 kts 133°
2026-05-05 15:49 0.79784 103.75025 37126 ft 459 kts 133°
2026-05-05 15:49 0.77562 103.77321 37370 ft 459 kts 133°
2026-05-05 15:49 0.75347 103.79609 37603 ft 459 kts 133°
2026-05-05 15:50 0.73125 103.81904 37834 ft 459 kts 133°
2026-05-05 15:50 0.70908 103.84194 38062 ft 458 kts 133°
2026-05-05 15:50 0.68694 103.86482 38292 ft 458 kts 133°
2026-05-05 15:50 0.66479 103.88770 38505 ft 458 kts 133°
2026-05-05 15:51 0.64270 103.91052 38694 ft 457 kts 133°
2026-05-05 15:51 0.62062 103.93333 38846 ft 457 kts 133°
2026-05-05 15:51 0.59850 103.95617 38898 ft 457 kts 133°
2026-05-05 15:52 0.55441 104.00171 38892 ft 455 kts 133°
2026-05-05 15:52 0.51042 104.04713 38892 ft 455 kts 133°
2026-05-05 15:53 0.46642 104.09255 38893 ft 455 kts 133°
2026-05-05 15:53 0.42241 104.13798 38888 ft 455 kts 133°
2026-05-05 15:54 0.37843 104.18338 38896 ft 454 kts 133°
2026-05-05 15:54 0.33449 104.22874 38898 ft 454 kts 133°
2026-05-05 15:55 0.29085 104.27382 38899 ft 454 kts 133°
2026-05-05 15:55 0.24660 104.31950 38898 ft 454 kts 133°
2026-05-05 15:56 0.20301 104.36450 38895 ft 454 kts 133°
2026-05-05 15:56 0.15912 104.40983 38899 ft 454 kts 133°
2026-05-05 15:57 0.11521 104.45516 38900 ft 454 kts 133°
2026-05-05 15:57 0.07137 104.50043 38901 ft 453 kts 133°
2026-05-05 15:58 0.02752 104.54571 38906 ft 453 kts 133°
2026-05-05 15:58 -0.01628 104.59093 38909 ft 453 kts 133°
2026-05-05 15:59 -0.06007 104.63615 38910 ft 453 kts 133°
2026-05-05 15:59 -0.10379 104.68131 38908 ft 453 kts 133°
2026-05-05 16:00 -0.14765 104.72657 38912 ft 453 kts 133°
2026-05-05 16:00 -0.19152 104.77187 38906 ft 453 kts 133°
2026-05-05 16:01 -0.23528 104.81705 38906 ft 453 kts 133°
2026-05-05 16:01 -0.27931 104.86207 38903 ft 453 kts 138°
2026-05-05 16:02 -0.33067 104.89838 38900 ft 454 kts 144°
2026-05-05 16:02 -0.38278 104.93393 38906 ft 453 kts 145°
2026-05-05 16:03 -0.43496 104.96925 38902 ft 453 kts 145°
2026-05-05 16:03 -0.48721 105.00462 38907 ft 454 kts 145°
2026-05-05 16:04 -0.53949 105.03999 38910 ft 454 kts 145°
2026-05-05 16:04 -0.58282 105.06930 38906 ft 454 kts 145°
2026-05-05 16:05 -0.62018 105.09458 38912 ft 454 kts 145°
2026-05-05 16:05 -0.67239 105.12992 38904 ft 454 kts 145°
2026-05-05 16:06 -0.72475 105.16535 38904 ft 454 kts 145°
2026-05-05 16:06 -0.77712 105.20079 38907 ft 454 kts 145°
2026-05-05 16:07 -0.82947 105.23621 38905 ft 454 kts 145°
2026-05-05 16:07 -0.88177 105.27161 38905 ft 455 kts 145°
2026-05-05 16:08 -0.93425 105.30712 38908 ft 455 kts 145°
2026-05-05 16:08 -0.98658 105.34254 38909 ft 455 kts 145°
2026-05-05 16:09 -1.03897 105.37799 38908 ft 455 kts 145°
2026-05-05 16:09 -1.09109 105.41327 38904 ft 455 kts 145°
2026-05-05 16:10 -1.14357 105.44880 38903 ft 456 kts 145°
2026-05-05 16:10 -1.19604 105.48431 38905 ft 456 kts 145°
2026-05-05 16:11 -1.24855 105.51986 38905 ft 456 kts 145°
2026-05-05 16:12 -1.35357 105.59096 38904 ft 456 kts 145°
2026-05-05 16:13 -1.48512 105.68003 38907 ft 457 kts 145°
2026-05-05 16:13 -1.53779 105.71570 38913 ft 458 kts 145°
2026-05-05 16:14 -1.64321 105.78709 38906 ft 458 kts 145°
2026-05-05 16:15 -1.74841 105.85834 38909 ft 458 kts 145°
2026-05-05 16:16 -1.84232 105.92195 38912 ft 459 kts 145°
2026-05-05 16:17 -1.92186 105.97584 38908 ft 459 kts 145°
2026-05-05 16:18 -2.00108 106.02951 38911 ft 459 kts 145°
2026-05-05 16:19 -2.07996 106.08297 38912 ft 459 kts 145°
2026-05-05 16:19 -2.16026 106.13504 38888 ft 459 kts 157°
2026-05-05 16:20 -2.22197 106.15044 38909 ft 461 kts 168°
2026-05-05 16:20 -2.28496 106.16206 38913 ft 461 kts 169°
2026-05-05 16:22 -2.43276 106.18750 38907 ft 461 kts 169°
2026-05-05 16:23 -2.55910 106.20912 38914 ft 460 kts 169°
2026-05-05 16:23 -2.65376 106.22532 38906 ft 460 kts 169°
2026-05-05 16:24 -2.71679 106.23610 38911 ft 459 kts 169°
2026-05-05 16:25 -2.81086 106.25220 38914 ft 459 kts 169°
2026-05-05 16:25 -2.90573 106.26844 38904 ft 459 kts 169°
2026-05-05 16:26 -3.03167 106.29000 38905 ft 459 kts 169°
2026-05-05 16:27 -3.09420 106.30071 38907 ft 459 kts 169°
2026-05-05 16:27 -3.15720 106.31150 38909 ft 459 kts 169°
2026-05-05 16:28 -3.22017 106.32229 38908 ft 459 kts 169°
2026-05-05 16:28 -3.28320 106.33309 38910 ft 460 kts 169°
2026-05-05 16:29 -3.34627 106.34390 38907 ft 460 kts 169°
2026-05-05 16:29 -3.40936 106.35470 38906 ft 460 kts 169°
2026-05-05 16:30 -3.47238 106.36550 38908 ft 460 kts 169°
2026-05-05 16:30 -3.51348 106.37255 38909 ft 460 kts 169°
2026-05-05 16:31 -3.57670 106.38339 38906 ft 461 kts 169°
2026-05-05 16:31 -3.63979 106.39463 38903 ft 461 kts 168°
2026-05-05 16:32 -3.70292 106.40649 38906 ft 464 kts 168°
2026-05-05 16:32 -3.76656 106.41838 38908 ft 465 kts 168°
2026-05-05 16:33 -3.83013 106.43027 38908 ft 465 kts 168°
2026-05-05 16:33 -3.89368 106.44215 38908 ft 465 kts 168°
2026-05-05 16:34 -3.95729 106.45404 38909 ft 465 kts 168°
2026-05-05 16:34 -4.02080 106.46591 38905 ft 465 kts 168°
2026-05-05 16:35 -4.08447 106.47782 38908 ft 465 kts 168°
2026-05-05 16:35 -4.14805 106.48971 38907 ft 465 kts 168°
2026-05-05 16:36 -4.21161 106.50160 38908 ft 464 kts 168°
2026-05-05 16:36 -4.27510 106.51348 38909 ft 464 kts 168°
2026-05-05 16:37 -4.33847 106.52534 38905 ft 463 kts 168°
2026-05-05 16:37 -4.40180 106.53720 38909 ft 462 kts 168°
2026-05-05 16:38 -4.46458 106.54894 38905 ft 462 kts 168°
2026-05-05 16:38 -4.52771 106.56077 38903 ft 462 kts 168°
2026-05-05 16:39 -4.59084 106.57259 38027 ft 463 kts 168°
2026-05-05 16:39 -4.62292 106.57860 36830 ft 475 kts 168°
2026-05-05 16:39 -4.65538 106.58468 36225 ft 472 kts 168°
2026-05-05 16:40 -4.68754 106.59070 35575 ft 471 kts 168°
2026-05-05 16:40 -4.71990 106.59676 34742 ft 475 kts 168°
2026-05-05 16:40 -4.75256 106.60288 33927 ft 479 kts 168°
2026-05-05 16:40 -4.78523 106.60900 33183 ft 479 kts 168°
2026-05-05 16:41 -4.81788 106.61512 32618 ft 474 kts 168°
2026-05-05 16:41 -4.85012 106.62132 32078 ft 469 kts 165°
2026-05-05 16:41 -4.88064 106.63229 31430 ft 465 kts 153°
2026-05-05 16:41 -4.91006 106.64568 30885 ft 462 kts 154°
2026-05-05 16:42 -4.93920 106.65882 30349 ft 459 kts 154°
2026-05-05 16:42 -4.96827 106.67204 29741 ft 458 kts 154°
2026-05-05 16:42 -4.99725 106.68528 29075 ft 456 kts 154°
2026-05-05 16:42 -5.02599 106.69841 28505 ft 453 kts 154°
2026-05-05 16:43 -5.05452 106.71144 27962 ft 449 kts 154°
2026-05-05 16:43 -5.08290 106.72441 27406 ft 446 kts 154°
2026-05-05 16:43 -5.11097 106.73725 26859 ft 443 kts 154°
2026-05-05 16:43 -5.13895 106.75003 26313 ft 440 kts 154°
2026-05-05 16:44 -5.16675 106.76274 25767 ft 438 kts 154°
2026-05-05 16:44 -5.19444 106.77528 25177 ft 437 kts 154°
2026-05-05 16:44 -5.22209 106.78780 24680 ft 434 kts 154°
2026-05-05 16:44 -5.24955 106.80024 24173 ft 432 kts 154°
2026-05-05 16:45 -5.27684 106.81260 23659 ft 430 kts 154°
2026-05-05 16:45 -5.30396 106.82489 23078 ft 428 kts 154°
2026-05-05 16:45 -5.33087 106.83709 22544 ft 420 kts 154°
2026-05-05 16:45 -5.35736 106.84909 22041 ft 416 kts 154°
2026-05-05 16:46 -5.38368 106.86103 21554 ft 413 kts 154°
2026-05-05 16:46 -5.40966 106.87280 21204 ft 406 kts 154°
2026-05-05 16:46 -5.43508 106.88432 21039 ft 395 kts 154°
2026-05-05 16:46 -5.46077 106.89347 20611 ft 394 kts 168°
2026-05-05 16:47 -5.48819 106.89402 20086 ft 397 kts 188°
2026-05-05 16:47 -5.51458 106.88580 19640 ft 397 kts 200°
2026-05-05 16:47 -5.54031 106.87578 19139 ft 397 kts 199°
2026-05-05 16:47 -5.56617 106.86588 18720 ft 395 kts 199°
2026-05-05 16:48 -5.59112 106.85630 18771 ft 378 kts 199°
2026-05-05 16:48 -5.61536 106.84699 18768 ft 368 kts 199°
2026-05-05 16:48 -5.63922 106.83779 18708 ft 365 kts 199°
2026-05-05 16:48 -5.66289 106.82876 18006 ft 365 kts 197°
2026-05-05 16:49 -5.68798 106.82494 16795 ft 371 kts 174°
2026-05-05 16:49 -5.71280 106.83198 15564 ft 376 kts 149°
2026-05-05 16:49 -5.73431 106.84721 14295 ft 383 kts 144°
2026-05-05 16:49 -5.75851 106.85911 12975 ft 393 kts 160°
2026-05-05 16:50 -5.78357 106.86954 11953 ft 387 kts 146°
2026-05-05 16:50 -5.80317 106.88725 11298 ft 373 kts 130°
2026-05-05 16:50 -5.82017 106.90640 10439 ft 366 kts 130°
2026-05-05 16:50 -5.83721 106.92564 9337 ft 370 kts 130°
2026-05-05 16:51 -5.85395 106.94503 8409 ft 363 kts 125°
2026-05-05 16:51 -5.86389 106.96780 7558 ft 354 kts 99°
2026-05-05 16:51 -5.86303 106.99207 6719 ft 349 kts 75°
2026-05-05 16:51 -5.85175 107.01328 5843 ft 347 kts 49°
2026-05-05 16:52 -5.83218 107.02702 5118 ft 343 kts 22°
2026-05-05 16:52 -5.80909 107.02998 4684 ft 332 kts 353°
2026-05-05 16:52 -5.78783 107.02310 4633 ft 314 kts 335°
2026-05-05 16:52 -5.77030 107.01068 4568 ft 304 kts 314°
2026-05-05 16:53 -5.75943 106.99305 4496 ft 294 kts 290°
2026-05-05 16:53 -5.75601 106.97361 4441 ft 282 kts 269°
2026-05-05 16:53 -5.75879 106.95467 4377 ft 269 kts 250°
2026-05-05 16:53 -5.76690 106.93844 4312 ft 255 kts 231°
2026-05-05 16:54 -5.77906 106.92602 4253 ft 250 kts 213°
2026-05-05 16:54 -5.79453 106.91730 4200 ft 258 kts 198°
2026-05-05 16:54 -5.81200 106.91314 4144 ft 260 kts 184°
2026-05-05 16:54 -5.82997 106.91091 4043 ft 261 kts 185°
2026-05-05 16:55 -5.84781 106.90861 3961 ft 253 kts 184°
2026-05-05 16:55 -5.86496 106.90641 3852 ft 244 kts 185°
2026-05-05 16:55 -5.88146 106.90422 3715 ft 236 kts 185°
2026-05-05 16:55 -5.89750 106.90204 3585 ft 228 kts 185°
2026-05-05 16:56 -5.91302 106.89988 3445 ft 221 kts 186°
2026-05-05 16:56 -5.92808 106.89773 3325 ft 217 kts 185°
2026-05-05 16:56 -5.94303 106.89555 3196 ft 217 kts 185°
2026-05-05 16:56 -5.95771 106.89274 3102 ft 218 kts 199°
2026-05-05 16:57 -5.97047 106.88443 3041 ft 220 kts 216°
2026-05-05 16:57 -5.98246 106.87482 3016 ft 220 kts 217°
2026-05-05 16:57 -5.99373 106.86570 2997 ft 220 kts 217°
2026-05-05 16:57 -6.00551 106.85610 2967 ft 220 kts 217°
2026-05-05 16:58 -6.01746 106.84631 2698 ft 220 kts 217°
2026-05-05 16:58 -6.02925 106.83663 2392 ft 218 kts 217°
2026-05-05 16:58 -6.03654 106.83064 2223 ft 216 kts 217°
2026-05-05 16:58 -6.04733 106.82061 2041 ft 208 kts 230°
2026-05-05 16:59 -6.05421 106.80832 1990 ft 199 kts 246°
2026-05-05 16:59 -6.05907 106.79532 1999 ft 199 kts 249°
2026-05-05 16:59 -6.06398 106.78229 2008 ft 199 kts 248°
2026-05-05 16:59 -6.06907 106.76952 1991 ft 199 kts 247°
2026-05-05 17:00 -6.07386 106.75747 1778 ft 198 kts 247°
2026-05-05 17:00 -6.07890 106.74472 1552 ft 193 kts 247°
2026-05-05 17:00 -6.08368 106.73271 1350 ft 174 kts 247°
2026-05-05 17:00 -6.08781 106.72230 1144 ft 158 kts 247°
2026-05-05 17:01 -6.09123 106.71374 974 ft 155 kts 247°
2026-05-05 17:01 -6.09363 106.70770 844 ft 155 kts 247°
2026-05-05 17:01 -6.09861 106.69507 597 ft 154 kts 247°
2026-05-05 17:01 -6.10263 106.68511 393 ft 152 kts 248°
2026-05-05 17:02 -6.10604 106.67649 217 ft 151 kts 249°
2026-05-05 17:02 -6.10954 106.66757 63 ft 147 kts 248°
2026-05-05 17:02 -6.11282 106.65937 43 ft 90 kts 248°
2026-05-05 17:02 -6.11452 106.65512 42 ft 62 kts 248°
2026-05-05 17:03 -6.11607 106.65154 44 ft 51 kts 236°
2026-05-05 17:03 -6.11782 106.64975 43 ft 18 kts 200°
2026-05-05 17:03 -6.11838 106.65014 42 ft 11 kts 91°
2026-05-05 17:03 -6.11813 106.65093 39 ft 13 kts 68°
2026-05-05 17:04 -6.11773 106.65191 41 ft 16 kts 68°
2026-05-05 17:04 -6.11730 106.65296 41 ft 18 kts 68°
2026-05-05 17:04 -6.11679 106.65425 41 ft 21 kts 69°
2026-05-05 17:04 -6.11624 106.65567 39 ft 23 kts 68°
2026-05-05 17:05 -6.11584 106.65668 40 ft 25 kts 68°
2026-05-05 17:05 -6.11521 106.65827 38 ft 20 kts 68°
2026-05-05 17:05 -6.11506 106.65875 40 ft 6 kts 92°
2026-05-05 17:05 -6.11533 106.65912 40 ft 6 kts 142°
2026-05-05 17:06 -6.11553 106.65923 40 ft 7 kts 153°
2026-05-05 17:06 -6.11593 106.65941 40 ft 9 kts 157°
2026-05-05 17:06 -6.11616 106.65950 40 ft 10 kts 158°
2026-05-05 17:06 -6.11681 106.65976 39 ft 12 kts 157°
2026-05-05 17:07 -6.11727 106.65995 40 ft 4 kts 163°
2026-05-05 17:07 -6.11736 106.65993 40 ft 2 kts 202°
2026-05-05 17:07 -6.11747 106.65983 40 ft 3 kts 233°
2026-05-05 17:07 -6.11754 106.65967 40 ft 2 kts 248°
2026-05-05 17:08 -6.11760 106.65952 40 ft 3 kts 246°
2026-05-05 17:08 -6.11766 106.65937 40 ft 0 kts 242°
2026-05-05 17:08 -6.11767 106.65936 40 ft 0 kts 245°
2026-05-05 17:09 -6.11765 106.65940 40 ft 2 kts 245°
2026-05-05 17:09 -6.11766 106.65937 40 ft 0 kts 245°